Stations météo

réclame
Mon MeteoGroup
Waldmünchen, Allemagne (10782): Température de l'air & dewpoint: 10.07.2019 04:00:00 - 16.07.2019 04:00:00 (CEST)Waldmünchen, Allemagne (10782): Température de l'air 5cm & Température de l'air -5cm: 10.07.2019 04:00:00 - 16.07.2019 04:00:00 (CEST)Waldmünchen, Allemagne (10782): Température de l'air -20cm & Température de l'air -100cm: 10.07.2019 04:00:00 - 16.07.2019 04:00:00 (CEST)Waldmünchen, Allemagne (10782): Vitesse du vent & gusts: 10.07.2019 04:00:00 - 16.07.2019 04:00:00 (CEST)Waldmünchen, Allemagne (10782): Direction du vent: 10.07.2019 04:00:00 - 16.07.2019 04:00:00 (CEST)Waldmünchen, Allemagne (10782): reduced air pressure: 10.07.2019 04:00:00 - 16.07.2019 04:00:00 (CEST)Waldmünchen, Allemagne (10782): visibility: 10.07.2019 04:00:00 - 16.07.2019 04:00:00 (CEST)Waldmünchen, Allemagne (10782): Ensoleillement: 10.07.2019 04:00:00 - 16.07.2019 04:00:00 (CEST)Waldmünchen, Allemagne (10782): Quantités de précipitations: 10.07.2019 04:00:00 - 16.07.2019 04:00:00 (CEST)
Date & Time tt [°C] td [°C] tt 5cm [°C] tt -5cm [°C] tt -20cm [°C] tt -100cm [°C] ff [km/h] ff [knt] fx [km/h] fx [knt] dd ppp [hPa] vv [km] sd [min] rr [mm]
16.07.2019 04:00:00 11,0 10,3 9,2 13,5 18,4 16,9 3 1 8 5 SSW 1016,8 8 0 0,0
16.07.2019 03:00:00 11,6 10,6 10,0 14,2 18,8 16,9 4 2 10 6 NW 1016,6 7 0 0,0
16.07.2019 02:00:00 13,0 11,2 10,4 14,9 19,2 16,9 4 2 7 4 WNW 1016,4 14 0 0,0
16.07.2019 01:00:00 13,2 11,9 12,2 15,4 19,6 16,9 3 1 9 5 SSE 1016,4 15 0 0,0
16.07.2019 00:00:00 12,4 11,5 11,4 16,2 20,0 16,9 6 4 8 4 E 1016,2 10 0 0,0
15.07.2019 23:00:00 13,9 11,8 11,8 17,2 20,4 17,0 3 1 9 5 SE 1015,8 12 0 0,0
15.07.2019 22:00:00 14,8 12,6 13,5 18,5 20,7 17,0 8 4 12 7 E 1015,4 18 0 0,0
15.07.2019 21:00:00 17,2 12,0 15,6 20,5 20,8 17,0 6 4 11 6 NNE 1014,4 30 34 0,0
15.07.2019 20:00:00 20,9 9,9 20,7 22,7 20,8 17,0 8 4 16 9 N 1013,5 36 48 0,0
15.07.2019 19:00:00 22,7 9,4 25,7 24,4 20,5 17,0 8 5 14 8 NNW 1012,9 43 38 0,0
15.07.2019 18:00:00 21,8 8,6 22,6 25,6 20,1 17,0 8 4 14 8 NNE 1013,3 40 44 0,0
15.07.2019 17:00:00 22,7 8,4 25,9 26,1 19,6 17,0 7 4 13 7 SE 1013,4 35 57 0,0
15.07.2019 16:00:00 22,2 8,6 26,7 26,4 18,9 17,0 3 2 14 8 SW 1013,7 37 56 0,0
15.07.2019 15:00:00 21,3 9,7 25,3 26,2 18,3 17,0 7 4 25 14 N 1014,2 25 56 0,0
15.07.2019 14:00:00 20,6 11,5 27,5 24,5 17,7 17,0 10 5 25 14 N 1014,7 21 58 0,0
15.07.2019 13:00:00 18,4 10,7 20,2 22,9 17,2 17,0 14 8 26 14 NNE 1015,5 20 40 0,0
15.07.2019 12:00:00 19,0 11,7 22,2 21,3 16,7 17,0 15 8 30 16 ENE 1015,4 17 56 0,0
15.07.2019 11:00:00 17,4 11,9 20,2 19,7 16,4 17,0 19 10 34 18 ENE 1015,8 18 54 0,0
15.07.2019 10:00:00 16,1 12,1 19,5 17,8 16,2 17,1 19 10 29 15 ENE 1016,3 10 47 0,0
15.07.2019 09:00:00 15,0 11,7 16,3 16,4 16,1 17,1 16 9 26 14 NE 1016,2 11 47 0,0
15.07.2019 08:00:00 14,2 11,4 14,3 14,4 16,2 17,1 7 4 23 12 ENE 1016,2 9 25 0,0
15.07.2019 07:00:00 12,8 11,3 12,3 12,9 16,4 17,1 19 11 26 14 NNE 1016,5 8 7 0,0
15.07.2019 06:00:00 12,2 11,1 11,0 12,5 16,7 17,1 13 7 21 12 NE 1016,6 6 0 0,0
15.07.2019 05:00:00 12,0 11,1 10,7 12,6 17,1 17,1 15 8 20 11 NNE 1016,4 7 0 0,0
15.07.2019 04:00:00 11,4 10,9 10,5 13,0 17,4 17,1 16 9 21 12 NNE 1016,5 7 0 0,0
15.07.2019 03:00:00 12,5 11,4 10,7 13,4 17,7 17,1 8 4 18 10 N 1016,6 13 0 0,0
15.07.2019 02:00:00 11,6 11,4 10,7 14,0 18,0 17,1 11 6 13 7 NNE 1016,9 7 0 0,0
15.07.2019 01:00:00 12,7 11,5 11,7 14,7 18,4 17,1 9 5 16 9 NE 1016,7 16 0 0,0
15.07.2019 00:00:00 13,2 12,2 12,3 15,4 18,7 17,1 14 8 20 11 NE 1016,6 19 0 0,0
14.07.2019 23:00:00 13,8 12,7 13,1 16,3 18,9 17,1 18 10 22 12 NNE 1016,3 19 0 0,5
14.07.2019 22:00:00 14,3 12,9 13,7 17,1 19,1 17,2 16 8 23 13 NE 1016,2 6 0 0,1
14.07.2019 21:00:00 16,4 12,2 15,7 18,3 19,2 17,2 11 6 18 10 NE 1015,5 37 14 0,0
14.07.2019 20:00:00 17,6 12,6 18,0 19,6 19,2 17,2 9 5 19 11 NNE 1014,7 40 26 0,0
14.07.2019 19:00:00 18,5 12,0 20,8 20,4 19,1 17,2 12 7 20 11 NNE 1014,5 45 21 0,0
14.07.2019 18:00:00 18,0 12,3 19,4 21,4 18,9 17,2 14 8 23 12 NNE 1014,3 45 27 0,0
14.07.2019 17:00:00 17,8 13,1 22,2 21,4 18,7 17,2 15 8 24 13 NNE 1014,5 24 48 0,0
14.07.2019 16:00:00 16,5 12,9 17,7 19,9 18,6 17,2 8 5 27 15 NE 1015,2 35 0 0,7
14.07.2019 15:00:00 17,2 13,0 18,8 20,8 18,3 17,2 11 6 22 12 NE 1015,1 49 0 0,2
14.07.2019 14:00:00 18,3 12,1 20,4 22,7 17,9 17,2 9 5 20 11 NNW 1014,8 40 20 0,0
14.07.2019 13:00:00 17,3 12,5 21,1 20,1 17,6 17,2 10 5 19 10 WNW 1015,4 39 0 0,0
14.07.2019 12:00:00 16,6 12,0 19,2 19,8 17,3 17,2 9 5 16 9 N 1015,6 54 0 0,0
14.07.2019 11:00:00 15,8 12,2 19,2 17,9 17,2 17,2 7 4 11 6 N 1015,9 21 0 0,0
14.07.2019 10:00:00 15,1 13,0 15,7 17,2 17,2 17,3 2 1 5 3 WSW 1016,1 13 0 0,0
14.07.2019 09:00:00 14,7 13,1 15,2 16,5 17,2 17,3 3 2 6 3 WSW 1015,8 13 0 0,0
14.07.2019 08:00:00 14,2 13,2 14,5 15,8 17,2 17,3 0 0 5 3 N 1015,7 10 0 0,0
14.07.2019 07:00:00 13,6 13,3 13,8 15,3 17,4 17,3 3 2 4 2 W 1015,8 6 0 0,1
14.07.2019 06:00:00 13,5 13,3 13,6 15,3 17,5 17,3 3 2 4 2 W 1015,7 6 0 0,0
14.07.2019 05:00:00 13,5 13,3 13,6 15,3 17,7 17,3 3 1 4 2 SE 1015,7 6 0 0,0
14.07.2019 04:00:00 13,2 12,9 13,1 15,2 17,8 17,3 0 0 5 3 N 1015,6 10 0 0,0
14.07.2019 03:00:00 13,4 13,2 13,2 15,5 18,0 17,3 3 1 6 3 SW 1015,9 4,8 0 0,0
14.07.2019 02:00:00 13,4 13,2 13,4 15,7 18,2 17,3 4 2 5 3 NNE 1016,2 9 0 0,0
14.07.2019 01:00:00 13,2 13,0 13,2 15,9 18,4 17,3 4 2 6 3 NE 1016,5 12 0 0,0
14.07.2019 00:00:00 13,4 13,0 13,1 16,2 18,6 17,3 0 0 6 3 N 1016,6 19 0 0,0
13.07.2019 23:00:00 13,8 12,9 13,4 16,8 18,8 17,3 3 2 22 12 N 1016,3 28 0 0,7
13.07.2019 22:00:00 14,9 13,9 14,5 17,5 19,0 17,3 6 3 10 5 W 1015,8 8 0 0,1
13.07.2019 21:00:00 15,5 13,9 15,0 18,1 19,0 17,3 4 2 21 11 SW 1015,2 23 0 0,0
13.07.2019 20:00:00 15,9 14,0 15,7 19,1 19,0 17,3 6 3 11 6 WSW 1014,9 38 0 0,0
13.07.2019 19:00:00 15,5 12,5 15,6 19,8 18,9 17,4 5 3 18 10 SSW 1014,7 70 0 0,1
13.07.2019 18:00:00 15,2 11,6 14,8 21,1 18,7 17,4 17 9 37 20 N 1014,7 13 39 0,3
13.07.2019 17:00:00 16,5 13,2 19,4 20,3 18,4 17,4 8 5 42 23 W 1014,2 41 14 0,1
13.07.2019 16:00:00 17,6 12,5 18,4 21,7 18,1 17,4 19 11 30 16 WNW 1013,8 30 34 0,0
13.07.2019 15:00:00 16,9 12,9 20,2 19,7 17,8 17,4 7 4 27 15 NNW 1014,0 30 0 0,0
13.07.2019 14:00:00 16,2 13,3 17,6 19,5 17,6 17,4 20 11 29 16 W 1014,4 14 6 0,0
13.07.2019 13:00:00 15,9 13,3 17,7 18,1 17,5 17,4 14 8 26 14 WNW 1014,5 12 0 0,1
13.07.2019 12:00:00 14,8 13,1 15,6 16,7 17,5 17,4 14 8 20 11 W 1014,6 15 0 0,7
13.07.2019 11:00:00 13,9 13,0 14,0 15,9 17,5 17,4 8 5 19 10 WSW 1014,4 7 0 0,0
13.07.2019 10:00:00 13,7 13,0 14,1 15,5 17,6 17,4 10 6 19 10 W 1014,0 9 0 0,0
13.07.2019 09:00:00 13,2 12,6 13,3 15,4 17,7 17,4 14 8 22 12 W 1013,6 7 0 0,1
13.07.2019 08:00:00 13,2 12,7 13,4 15,1 17,9 17,4 12 6 16 9 W 1013,1 9 0 0,1
13.07.2019 07:00:00 12,9 12,6 13,0 15,0 18,1 17,4 9 5 18 10 WSW 1012,7 8 0 0,2
13.07.2019 06:00:00 12,7 12,4 12,8 15,0 18,4 17,4 4 2 7 4 WSW 1012,3 4,7 0 0,6
13.07.2019 05:00:00 12,8 12,7 12,9 15,1 18,7 17,4 5 3 8 5 WSW 1012,2 3,5 0 2,7
13.07.2019 04:00:00 12,9 12,7 12,9 15,2 19,0 17,4 4 2 5 3 SW 1012,1 1,7 0 2,6
13.07.2019 03:00:00 13,1 12,9 12,9 15,4 19,4 17,4 3 1 6 3 E 1012,0 6 0 6,9
13.07.2019 02:00:00 13,1 12,7 13,2 15,8 19,7 17,4 3 2 12 7 WSW 1012,2 1,8 0 3,0
13.07.2019 01:00:00 13,1 12,5 13,0 16,1 20,1 17,4 9 5 16 8 S 1012,1 18 0 0,1
13.07.2019 00:00:00 13,4 12,7 13,2 16,4 20,5 17,4 4 2 17 9 SSE 1011,6 18 0 0,9
12.07.2019 23:00:00 13,4 12,8 13,4 17,0 20,8 17,4 10 5 39 21 NE 1012,1 1,6 0 3,7
12.07.2019 22:00:00 13,8 12,6 13,7 18,5 21,1 17,5 13 7 26 14 NNE 1011,6 1,3 0 10,6
12.07.2019 21:00:00 18,1 13,5 17,5 20,7 21,2 17,5 6 3 16 9 SSW 1010,2 46 0 0,0
12.07.2019 20:00:00 19,0 12,8 18,9 21,7 21,3 17,5 10 6 24 13 SSW 1009,9 57 3 0,0
12.07.2019 19:00:00 19,7 12,5 19,9 22,7 21,2 17,5 14 8 29 16 SW 1009,9 70 11 0,0
12.07.2019 18:00:00 20,8 13,1 22,5 23,5 21,1 17,5 21 11 34 18 SW 1009,9 35 23 0,0
12.07.2019 17:00:00 20,5 14,0 24,0 24,3 21,0 17,5 15 8 23 12 WSW 1010,2 27 28 0,0
12.07.2019 16:00:00 18,4 14,7 21,0 23,7 20,8 17,5 12 7 41 22 WSW 1011,5 25 14 0,6
12.07.2019 15:00:00 20,5 12,0 21,9 25,7 20,3 17,5 17 9 27 15 SW 1010,9 33 0 0,0
12.07.2019 14:00:00 20,6 11,3 22,9 28,5 19,5 17,5 13 7 28 15 W 1010,9 22 32 0,0
12.07.2019 13:00:00 19,5 12,1 25,2 27,3 18,9 17,5 9 5 22 12 WSW 1011,8 16 56 0,0
12.07.2019 12:00:00 19,0 14,0 24,1 23,0 18,5 17,5 16 8 30 16 WSW 1012,4 12 56 0,0
12.07.2019 11:00:00 16,9 13,2 19,5 19,5 18,4 17,5 21 11 28 15 WSW 1012,9 14 20 0,0
12.07.2019 10:00:00 15,3 12,8 17,0 17,4 18,5 17,5 12 7 22 12 SW 1013,3 11 0 0,0
12.07.2019 09:00:00 14,3 12,7 15,0 16,8 18,6 17,5 15 8 22 12 WSW 1013,7 8 0 0,0
12.07.2019 08:00:00 14,0 12,7 14,4 16,4 18,7 17,5 15 8 21 11 SW 1013,6 7 0 0,0
12.07.2019 07:00:00 13,7 12,8 13,7 16,0 18,9 17,5 9 5 15 8 SW 1013,8 5 0 0,0
12.07.2019 06:00:00 13,6 12,8 13,5 16,0 19,1 17,5 8 5 14 8 SSW 1013,6 5 0 0,0
12.07.2019 05:00:00 13,4 12,8 13,3 16,1 19,3 17,5 10 6 18 10 WSW 1013,8 4,6 0 0,0
12.07.2019 04:00:00 13,3 13,0 13,2 16,3 19,5 17,5 7 4 18 10 W 1013,7 1,7 0 0,0
12.07.2019 03:00:00 13,2 12,6 13,1 16,5 19,7 17,5 11 6 15 8 SW 1013,8 4,4 0 0,7
12.07.2019 02:00:00 13,1 12,6 13,0 16,9 20,0 17,5 10 6 19 11 SW 1014,2 4,3 0 0,4
12.07.2019 01:00:00 13,1 12,6 13,1 17,3 20,2 17,5 7 4 16 9 WSW 1014,8 4,0 0 1,1
12.07.2019 00:00:00 13,2 12,6 13,0 17,7 20,5 17,5 10 5 16 9 SW 1014,9 3,0 0 0,4
11.07.2019 23:00:00 13,4 12,6 13,2 18,2 20,7 17,5 8 4 14 8 SW 1014,8 8 0 0,2
11.07.2019 22:00:00 13,3 12,2 13,0 18,9 20,9 17,6 9 5 15 8 SW 1014,8 11 0 0,0
11.07.2019 21:00:00 13,8 11,8 13,5 20,0 21,1 17,6 11 6 31 17 WSW 1014,5 19 0 0,0
11.07.2019 20:00:00 15,7 10,5 16,0 21,5 21,1 17,6 21 12 44 24 W 1014,2 39 0 0,0
11.07.2019 19:00:00 17,9 9,9 18,6 22,8 21,1 17,6 29 16 44 24 W 1013,0 43 0 0,0
11.07.2019 18:00:00 20,4 7,3 21,3 23,3 20,9 17,6 12 7 19 10 WSW 1011,9 60 0 0,0
11.07.2019 17:00:00 20,2 7,2 21,1 24,0 20,7 17,6 12 7 22 12 W 1012,3 56 0 0,0
11.07.2019 16:00:00 20,2 7,5 22,0 24,1 20,5 17,6 12 7 23 13 SW 1012,6 56 0 0,0
11.07.2019 15:00:00 20,0 7,3 23,3 24,3 20,2 17,6 11 6 21 11 W 1012,9 39 0 0,0
11.07.2019 14:00:00 19,1 6,8 21,7 24,0 19,9 17,6 7 4 14 8 SSW 1013,6 54 0 0,0
11.07.2019 13:00:00 18,4 7,0 21,2 23,2 19,5 17,6 8 5 20 11 NNE 1014,0 54 0 0,0
11.07.2019 12:00:00 18,1 7,5 22,0 23,6 19,2 17,6 6 3 11 6 ENE 1014,6 - 4 0,0
11.07.2019 11:00:00 17,4 7,1 20,7 20,7 19,0 17,6 3 2 9 5 W 1015,1 34 0 0,0
11.07.2019 10:00:00 15,5 5,7 18,3 18,9 19,0 17,6 5 3 6 4 WNW 1015,5 36 0 0,0
11.07.2019 09:00:00 14,1 8,4 15,4 17,3 19,1 17,6 3 2 6 4 E 1015,7 32 0 0,0
11.07.2019 08:00:00 12,7 7,9 13,3 16,2 19,3 17,6 5 3 13 7 W 1016,0 35 0 0,0
11.07.2019 07:00:00 10,5 7,2 10,8 15,6 19,6 17,6 12 7 18 10 WSW 1016,6 29 0 0,0
11.07.2019 06:00:00 10,3 7,5 10,2 15,2 19,9 17,6 3 2 5 3 E 1016,1 36 0 0,0
11.07.2019 05:00:00 9,8 7,6 9,2 15,3 20,2 17,6 5 3 5 3 E 1016,4 30 0 0,0
11.07.2019 04:00:00 10,0 6,5 9,8 15,7 20,6 17,6 4 2 8 4 NE 1016,8 39 0 0,0
11.07.2019 03:00:00 10,3 7,1 8,7 16,5 20,9 17,6 4 2 5 3 E 1017,3 36 0 0,0
11.07.2019 02:00:00 11,2 7,5 10,6 17,0 21,3 17,6 3 2 7 4 E 1017,3 36 0 0,0
11.07.2019 01:00:00 11,0 7,4 10,3 17,4 21,7 17,6 4 2 9 5 E 1017,7 34 0 0,0
11.07.2019 00:00:00 11,1 7,0 10,4 18,0 22,2 17,7 6 4 10 5 N 1017,6 40 0 0,0
10.07.2019 23:00:00 11,1 7,5 9,9 19,0 22,6 17,7 7 4 11 6 E 1017,7 38 0 0,0
10.07.2019 22:00:00 13,5 7,0 11,3 20,9 22,9 17,7 5 3 8 4 ENE 1017,1 45 0 0,0
10.07.2019 21:00:00 17,9 4,8 14,8 23,1 23,1 17,7 6 3 19 10 WNW 1015,9 54 49 0,0
10.07.2019 20:00:00 19,0 4,5 18,5 25,4 23,1 17,7 12 7 27 15 WNW 1015,6 53 53 0,0
10.07.2019 19:00:00 20,8 3,0 23,3 27,7 22,8 17,7 17 9 31 17 WNW 1015,4 33 60 0,0
10.07.2019 18:00:00 21,0 2,9 24,9 29,3 22,4 17,7 17 9 31 17 W 1015,5 22 60 0,0
10.07.2019 17:00:00 21,3 3,3 26,0 30,4 21,8 17,7 9 5 31 17 WSW 1015,6 28 60 0,0
10.07.2019 16:00:00 20,7 3,5 25,7 30,9 21,1 17,7 18 10 30 16 W 1016,1 35 60 0,0
10.07.2019 15:00:00 19,9 4,0 26,8 30,2 20,4 17,7 7 4 24 13 SW 1016,7 28 47 0,0
10.07.2019 14:00:00 18,9 5,1 27,0 28,8 19,7 17,7 15 8 28 15 W 1017,3 35 52 0,0
10.07.2019 13:00:00 18,9 6,0 24,7 26,5 19,1 17,7 9 5 26 14 W 1017,6 70 45 0,0
10.07.2019 12:00:00 17,0 5,1 23,6 24,6 18,6 17,7 10 5 27 14 N 1018,3 38 30 0,0
10.07.2019 11:00:00 14,8 5,8 18,2 22,8 18,2 17,7 14 7 27 14 WNW 1018,9 45 24 0,0
10.07.2019 10:00:00 14,9 6,8 19,3 21,2 17,9 17,7 13 7 20 11 SW 1019,1 36 60 0,0
10.07.2019 09:00:00 13,3 5,9 16,8 17,9 17,8 17,8 7 4 12 7 WSW 1019,3 32 60 0,0
10.07.2019 08:00:00 11,3 5,6 14,2 14,8 18,0 17,8 3 2 5 3 ESE 1019,9 44 45 0,0
10.07.2019 07:00:00 7,4 5,6 8,2 12,9 18,3 17,8 2 1 7 4 WSW 1020,7 34 22 0,0
10.07.2019 06:00:00 4,9 3,8 5,7 11,8 18,8 17,8 6 3 13 7 W 1021,2 31 4 0,0
10.07.2019 05:00:00 4,7 3,8 2,2 12,2 19,2 17,8 4 2 6 3 ENE 1021,0 29 0 0,0
10.07.2019 04:00:00 5,8 4,5 4,7 12,9 19,6 17,8 3 2 8 4 E 1020,6 41 0 0,0

tt = Température de l'air
td = dewpoint
tt 5cm = Température de l'air 5cm
tt -5cm = Température de l'air -5cm
tt -20cm = Température de l'air -20cm
tt -100cm = Température de l'air -100cm
ff = Vitesse du vent
fx = gusts
dd = Direction du vent
ppp = reduced air pressure
vv = visibility
sd = Ensoleillement
rr = Quantités de précipitations

stations d'obs. à proximité